sat.trackr.live / text

‹ back to catalog

TIANQI-38

NORAD 67477 · 2026-010B

PAYLOAD ACTIVE UNKNOWN

§ Identity

Operator
Country
PRC
Launch date
2026-01-15
Launch site
YSLA
Launch vehicle
Mass (kg)
RCS (m²)

External: N2YO · Heavens-Above · Gunter

§ Orbital elements

Epoch: 2026-05-24T12:34:06.213792Z

Period
102.92 min
Inclination
44.9766°
Eccentricity
0.0011798
Mean motion
13.99154023 rev/d
Perigee alt
888.1 km
Apogee alt
905.3 km
Semi-major
7,274.9 km
B*
7.8968e-5
RAAN
186.8049°
Arg perigee
226.0735°
Mean anomaly
133.9125°
Rev number
1,808

§ Raw data

TIANQI-381 67477U 26010B   26144.52368303 -.00000013  00000+0  78968-4 0  99932 67477  44.9766 186.8049 0011798 226.0735 133.9125 13.99154023 18084

JSON: /api/v1/satellites/67477 · /tle

For live sub-satellite position, see the globe view (requires WebGL).

§ Visibility from observer

Set your observer location to see the next 7 days of passes ≥ 10°. The values pass through the URL so the page stays shareable.

No JS? Fill the form by hand. The geolocation button needs JavaScript.